CST,Max TemperatureF,Mean TemperatureF,Min TemperatureF,Max Dew PointF,MeanDew PointF,Min DewpointF,Max Humidity, Mean Humidity, Min Humidity, Max Sea Level PressureIn, Mean Sea Level PressureIn, Min Sea Level PressureIn, Max VisibilityMiles, Mean VisibilityMiles, Min VisibilityMiles, Max Wind SpeedMPH, Mean Wind SpeedMPH, Max Gust SpeedMPH,PrecipitationIn, CloudCover, Events, WindDirDegrees
2013-2-1,67,60,50,46,41,35,81,53,37,30.41,30.36,30.33,10,10,10,9,3,17,0.00,3,,96
2013-2-2,74,62,50,54,48,42,89,61,48,30.35,30.28,30.21,10,10,10,10,6,,0.00,3,,152
2013-2-3,68,59,50,52,39,30,78,49,25,30.30,30.22,30.14,10,10,10,10,5,,0.00,4,,352
2013-2-4,68,60,52,60,52,46,100,79,51,30.12,30.03,29.94,10,8,1,7,4,,0.00,8,Rain,121
2013-2-5,71,63,55,61,57,52,91,76,64,30.06,30.00,29.94,10,7,2,6,5,,0.00,6,,50
2013-2-6,66,62,57,58,56,54,94,77,68,30.15,30.06,29.94,7,6,0,13,6,17,0.00,8,Fog-Rain,122
2013-2-7,71,65,59,61,57,54,94,75,63,29.97,29.91,29.81,10,10,7,10,5,,0.00,2,Fog-Rain,348
2013-2-8,70,65,60,59,56,50,88,74,62,30.16,30.08,29.99,10,5,1,12,6,18,0.00,6,,321
2013-2-9,68,64,59,58,54,47,86,70,62,30.22,30.14,29.92,10,8,7,12,9,,0.00,7,,101
2013-2-10,74,70,67,68,66,60,91,83,77,30.06,30.00,29.96,9,8,6,17,12,23,0.00,7,,170
2013-2-11,69,62,56,66,58,52,94,83,62,30.11,30.06,30.01,8,5,0,13,6,17,0.00,8,Fog-Rain,41
2013-2-12,75,68,60,69,64,55,94,84,73,30.04,29.86,29.77,9,4,0,18,9,,0.00,7,Fog-Rain,226
2013-2-13,58,54,51,50,45,39,88,71,60,30.08,30.00,29.91,10,8,1,14,9,23,0.00,6,Rain,334
2013-2-14,66,55,44,42,38,34,79,58,37,30.17,30.11,29.89,10,10,7,12,4,17,0.00,3,,29
2013-2-15,66,54,41,44,39,35,91,54,32,30.19,30.14,30.09,10,9,6,12,4,,0.00,3,Fog,43
2013-2-16,55,50,43,38,26,16,62,40,21,30.32,30.25,30.17,10,10,10,21,12,,0.00,0,,343
2013-2-17,63,50,38,38,35,24,74,53,39,30.38,30.31,30.26,10,10,10,9,4,,0.00,0,,133
2013-2-18,,,,,,,,,,30.27,30.15,30.02,,,,,,,0.00,,,-1
2013-2-19,68,62,55,55,41,31,82,50,25,30.25,30.15,30.01,10,10,7,14,10,23,0.00,5,,356
2013-2-20,62,54,46,41,35,29,66,45,39,30.27,30.18,30.06,10,10,10,14,9,20,0.00,7,,81
2013-2-21,71,66,60,64,58,49,84,74,65,30.04,29.93,29.82,10,8,7,13,10,26,0.00,8,,173
2013-2-22,69,66,62,66,58,50,94,78,56,29.98,29.92,29.88,10,5,0,12,9,17,0.00,8,Fog-Rain,96
2013-2-23,63,60,57,56,53,49,87,75,68,29.96,29.92,29.86,10,8,6,10,7,,0.00,8,Rain-Thunderstorm,32
2013-2-24,64,57,50,59,54,45,94,80,65,29.98,29.89,29.75,10,7,1,23,9,34,0.00,7,Rain-Thunderstorm,81
2013-2-25,65,62,59,62,59,54,94,85,73,29.74,29.64,29.50,8,5,1,18,10,18,0.00,8,Rain-Thunderstorm,167
2013-2-26,60,54,47,45,37,32,66,51,41,29.96,29.80,29.62,10,10,10,20,13,29,0.00,5,,289
2013-2-27,70,60,51,48,43,38,72,51,36,30.06,30.00,29.94,10,9,6,10,4,,0.00,4,Fog,252
2013-2-28,56,52,48,36,33,26,57,48,39,30.15,30.10,30.06,10,9,8,13,9,23,0.00,6,,351